World > North America > United States > Illinois   City of Peoria, IL
Hourly regional weather for Peoria, IllinoisPeoria, Illinois Regional Hourly Weather

Peoria, Illinois Regional Weather

regional weather peoria, ilHOURLY REGIONAL WEATHER FOR PEORIA, IL
Lat: 40.74N, Lon: 89.61W 
Web Search
Peoria Weather Warning NWS WEATHER ALERT FOR THE PEORIA, IL AREA - Issued: 610 AM CST Mon Jan 24 2022 Peoria Weather Warning  

Helpful Tip: Type the letters wx in the search engine next time you need to find us.

Feedback


°F Click to change Peoria hourly weather to Imperial units.Click to change Peoria hourly weather to Metric units. °C
Peoria Weather Map
UTC Time: 1/24/2022, 14:09
Your Time:

Peoria, IL Regional Weather

Expires:202201241500;;743190
ASUS43 KLOT 241407
RWRIL 

ILLINOIS REGIONAL WEATHER ROUNDUP
NATIONAL WEATHER SERVICE CHICAGO/ROMEOVILLE IL
800 AM CST MON JAN 24 2022

NOTE: "FAIR" INDICATES FEW OR NO CLOUDS BELOW 12,000 FEET WITH NO
SIGNIFICANT WEATHER AND/OR OBSTRUCTIONS TO VISIBILITY.

* THESE STATIONS ARE NOT UNDER NWS QUALITY CONTROL. THEY ALSO MAY NOT
  REPORT WEATHER SUCH AS PRECIPITATION OR FOG.


ILZ028>032-037-038-041>044-048-051>054-059>061-241500-
CENTRAL ILLINOIS
  
CITY           SKY/WX    TMP DP  RH WIND       PRES   REMARKS
PONTIAC        CLOUDY    26  20  79 SW8       29.64S WCI  17          
BLOOMINGTON    CLOUDY    25  20  81 SW16      29.61F WCI  12          
DECATUR        MOCLDY    30  22  72 SW16      29.64F WCI  19          
PEORIA         CLOUDY    27  19  74 SW6       29.64S WCI  20          
LACON*         CLOUDY    26  22  87 SW6       29.62S WCI  19          
SPRINGFIELD    MOCLDY    32  23  69 SW14      29.62F WCI  22          
TAYLORVILLE    MOCLDY    32  23  69 S15       29.66F WCI  22          
$$


SKY/WX - Weather  TMP - Temperature  DP - Dew Point  RH - Relative Humidity
WIND - Wind Direction/Speed PRES - Barometric Pressure VSB - Visibility
WCI - Wind Chill Index E13G22 Wind - East Wind 13 mph/Gusts of 22 mph